CFE61T EHRD-EGLC

Flight info

Callsign CFE61T
Flight time N/A
Altitude 20000
Route ABNED L980 XAMAN
Aircraft E190/M-SDE3GILORVW/S

Departure

Time 2026-05-04 09:04
Airport Rotterdam The Hague Airport (EHRD)

Arrival

Time N/A
Airport London City Airport (EGLC)
Time Latitude Longitude Altitude Speed Heading
2026-05-04 08:40 51.95042 4.43559 0 ft 0 kts 326°
2026-05-04 09:01 51.95408 4.43815 -1 ft 18 kts 57°
2026-05-04 09:01 51.95481 4.43998 0 ft 20 kts 57°
2026-05-04 09:01 51.95563 4.44199 0 ft 22 kts 56°
2026-05-04 09:01 51.95651 4.44419 0 ft 24 kts 57°
2026-05-04 09:02 51.95748 4.44653 -1 ft 26 kts 52°
2026-05-04 09:02 51.95845 4.44903 0 ft 27 kts 60°
2026-05-04 09:02 51.95948 4.45164 0 ft 28 kts 57°
2026-05-04 09:02 51.96041 4.45397 0 ft 22 kts 57°
2026-05-04 09:03 51.96114 4.45576 0 ft 14 kts 56°
2026-05-04 09:03 51.96196 4.45631 0 ft 15 kts 333°
2026-05-04 09:03 51.96253 4.45487 -1 ft 17 kts 281°
2026-05-04 09:03 51.96200 4.45303 1 ft 24 kts 238°
2026-05-04 09:04 51.96008 4.44824 -2 ft 90 kts 237°
2026-05-04 09:04 51.95536 4.43637 29 ft 159 kts 237°
2026-05-04 09:04 51.94949 4.41951 633 ft 190 kts 240°
2026-05-04 09:04 51.94235 4.39998 1453 ft 208 kts 238°
2026-05-04 09:05 51.93446 4.37957 2273 ft 220 kts 236°
2026-05-04 09:05 51.92604 4.35815 3046 ft 230 kts 237°
2026-05-04 09:05 51.91894 4.33528 4025 ft 229 kts 257°
2026-05-04 09:05 51.92100 4.31013 4916 ft 231 kts 297°
2026-05-04 09:06 51.92857 4.28729 5745 ft 232 kts 287°
2026-05-04 09:07 51.94070 4.09601 10130 ft 291 kts 275°
2026-05-04 09:08 51.94062 4.06189 10401 ft 315 kts 262°
2026-05-04 09:08 51.93671 4.02589 10854 ft 331 kts 258°
2026-05-04 09:08 51.93231 3.98951 11646 ft 336 kts 259°
2026-05-04 09:08 51.92827 3.95208 12590 ft 339 kts 259°
2026-05-04 09:09 51.92443 3.91427 13620 ft 342 kts 260°
2026-05-04 09:09 51.92064 3.87613 14612 ft 344 kts 260°
2026-05-04 09:09 51.91688 3.83771 15599 ft 346 kts 260°
2026-05-04 09:09 51.91306 3.79896 16508 ft 351 kts 260°
2026-05-04 09:10 51.90919 3.75977 17377 ft 355 kts 260°
2026-05-04 09:10 51.90525 3.72002 18257 ft 359 kts 260°
2026-05-04 09:10 51.90126 3.67986 19055 ft 362 kts 259°
2026-05-04 09:10 51.89722 3.63946 19817 ft 367 kts 259°
2026-05-04 09:11 51.89320 3.59936 20020 ft 357 kts 259°
2026-05-04 09:11 51.88936 3.56104 20012 ft 332 kts 259°
2026-05-04 09:11 51.88598 3.52742 19972 ft 313 kts 259°
2026-05-04 09:11 51.88275 3.49550 19976 ft 294 kts 259°
2026-05-04 09:12 51.87950 3.46379 20008 ft 278 kts 258°
2026-05-04 09:12 51.87633 3.43294 20025 ft 279 kts 258°
2026-05-04 09:14 51.85343 3.21150 20029 ft 287 kts 259°
2026-05-04 09:14 51.85006 3.17924 20060 ft 302 kts 259°
2026-05-04 09:14 51.84669 3.14421 20130 ft 329 kts 262°
2026-05-04 09:14 51.84445 3.10736 20011 ft 331 kts 263°
2026-05-04 09:15 51.84231 3.06984 20003 ft 341 kts 263°
2026-05-04 09:15 51.83999 3.03136 19999 ft 346 kts 263°
2026-05-04 09:15 51.83755 2.99257 20002 ft 348 kts 263°
2026-05-04 09:15 51.83507 2.95407 19987 ft 349 kts 263°
2026-05-04 09:17 51.81413 2.64095 19986 ft 350 kts 262°
2026-05-04 09:18 51.81142 2.60180 19990 ft 350 kts 262°
2026-05-04 09:18 51.80877 2.56318 19975 ft 337 kts 262°
2026-05-04 09:18 51.80625 2.52670 19934 ft 318 kts 262°
2026-05-04 09:18 51.80370 2.49047 20035 ft 341 kts 262°
2026-05-04 09:19 51.80091 2.45109 20066 ft 362 kts 262°
2026-05-04 09:19 51.79802 2.40997 20052 ft 373 kts 262°
2026-05-04 09:19 51.79512 2.36874 19986 ft 358 kts 262°
2026-05-04 09:19 51.79240 2.33019 19955 ft 334 kts 262°
2026-05-04 09:20 51.78983 2.29404 19904 ft 314 kts 262°
2026-05-04 09:20 51.78740 2.26006 19871 ft 295 kts 262°
2026-05-04 09:20 51.78506 2.22761 19642 ft 287 kts 262°
2026-05-04 09:20 51.78288 2.19550 19234 ft 289 kts 263°
2026-05-04 09:21 51.78107 2.16320 18849 ft 288 kts 263°
2026-05-04 09:21 51.77926 2.13137 18435 ft 288 kts 263°
2026-05-04 09:21 51.77742 2.09936 18027 ft 287 kts 263°
2026-05-04 09:21 51.77553 2.06738 17569 ft 285 kts 263°
2026-05-04 09:22 51.77366 2.03559 17114 ft 284 kts 263°
2026-05-04 09:22 51.77177 2.00395 16669 ft 282 kts 263°
2026-05-04 09:22 51.76988 1.97237 16235 ft 284 kts 263°
2026-05-04 09:22 51.76793 1.94020 15819 ft 293 kts 263°
2026-05-04 09:23 51.76593 1.90715 15400 ft 298 kts 263°
2026-05-04 09:23 51.76389 1.87368 14955 ft 300 kts 263°
2026-05-04 09:23 51.76187 1.84055 14514 ft 300 kts 263°
2026-05-04 09:23 51.75982 1.80705 14053 ft 299 kts 263°
2026-05-04 09:25 51.74564 1.58022 10775 ft 277 kts 263°
2026-05-04 09:25 51.74371 1.54997 10333 ft 265 kts 263°
2026-05-04 09:26 51.74190 1.52154 9911 ft 252 kts 263°
2026-05-04 09:26 51.74015 1.49391 9470 ft 243 kts 263°
2026-05-04 09:26 51.73847 1.46722 9049 ft 235 kts 263°
2026-05-04 09:26 51.73681 1.44213 9417 ft 210 kts 260°
2026-05-04 09:27 51.73307 1.41952 9686 ft 209 kts 245°
2026-05-04 09:27 51.72497 1.39989 9520 ft 215 kts 231°
2026-05-04 09:27 51.71509 1.38088 9353 ft 226 kts 230°
2026-05-04 09:27 51.70478 1.36136 9206 ft 230 kts 229°
2026-05-04 09:28 51.69413 1.34242 9039 ft 232 kts 228°
2026-05-04 09:28 51.68336 1.32293 8863 ft 233 kts 229°
2026-05-04 09:28 51.67282 1.30309 8671 ft 233 kts 230°
2026-05-04 09:28 51.66240 1.28315 8479 ft 232 kts 230°
2026-05-04 09:29 51.65212 1.26333 8277 ft 230 kts 230°
2026-05-04 09:29 51.64191 1.24358 8089 ft 229 kts 230°
2026-05-04 09:29 51.63180 1.22396 7888 ft 228 kts 230°
2026-05-04 09:29 51.62169 1.20435 7697 ft 227 kts 230°
2026-05-04 09:30 51.61174 1.18506 7524 ft 226 kts 230°
2026-05-04 09:30 51.60170 1.16557 7361 ft 227 kts 230°
2026-05-04 09:30 51.59165 1.14608 7233 ft 226 kts 230°
2026-05-04 09:30 51.58167 1.12672 7101 ft 225 kts 230°
2026-05-04 09:31 51.57165 1.10730 6979 ft 225 kts 230°
2026-05-04 09:31 51.56168 1.08797 6852 ft 224 kts 230°
2026-05-04 09:31 51.55171 1.06868 6726 ft 225 kts 230°
2026-05-04 09:31 51.54169 1.04930 6592 ft 225 kts 229°
2026-05-04 09:32 51.53167 1.02995 6470 ft 226 kts 230°
2026-05-04 09:32 51.52166 1.01057 6338 ft 225 kts 230°
2026-05-04 09:34 51.47661 0.86203 6100 ft 227 kts 274°
2026-05-04 09:34 51.47780 0.83675 6102 ft 228 kts 273°
2026-05-04 09:34 51.47890 0.81154 5988 ft 228 kts 273°
2026-05-04 09:34 51.47992 0.78646 6020 ft 225 kts 272°
2026-05-04 09:35 51.48087 0.76126 5860 ft 230 kts 272°
2026-05-04 09:35 51.48182 0.73556 5597 ft 231 kts 272°
2026-05-04 09:35 51.48277 0.70992 5328 ft 229 kts 273°
2026-05-04 09:35 51.48371 0.68459 5062 ft 227 kts 273°
2026-05-04 09:37 51.48992 0.51279 4046 ft 221 kts 273°
2026-05-04 09:37 51.49080 0.48812 4061 ft 222 kts 273°
2026-05-04 09:38 51.48983 0.46355 4040 ft 223 kts 251°
2026-05-04 09:38 51.48308 0.44123 4025 ft 223 kts 239°
2026-05-04 09:38 51.47466 0.42003 3859 ft 226 kts 237°
2026-05-04 09:38 51.46622 0.39894 3689 ft 224 kts 238°
2026-05-04 09:39 51.45815 0.37779 3567 ft 220 kts 239°
2026-05-04 09:39 51.45050 0.35714 3469 ft 209 kts 239°
2026-05-04 09:39 51.44341 0.33783 3312 ft 198 kts 239°
2026-05-04 09:39 51.43655 0.31910 3099 ft 194 kts 239°
2026-05-04 09:40 51.43101 0.29963 2823 ft 191 kts 262°
2026-05-04 09:40 51.43071 0.27938 2931 ft 181 kts 274°
2026-05-04 09:40 51.43176 0.25911 2944 ft 183 kts 275°
2026-05-04 09:40 51.43270 0.23847 2875 ft 186 kts 274°
2026-05-04 09:41 51.43342 0.21781 2792 ft 185 kts 273°
2026-05-04 09:42 51.43786 0.07717 2583 ft 164 kts 274°
2026-05-04 09:43 51.43852 0.05769 2791 ft 183 kts 274°
2026-05-04 09:43 51.43914 0.03773 2817 ft 172 kts 273°
2026-05-04 09:43 51.43964 0.01975 2777 ft 151 kts 274°
2026-05-04 09:43 51.44013 0.00390 2624 ft 137 kts 274°
2026-05-04 09:44 51.44060 -0.01105 2342 ft 135 kts 274°
2026-05-04 09:44 51.44106 -0.02575 2055 ft 129 kts 275°
2026-05-04 09:44 51.44152 -0.03979 2084 ft 121 kts 275°
2026-05-04 09:46 51.46483 -0.12044 1968 ft 132 kts 354°
2026-05-04 09:46 51.47378 -0.12374 1841 ft 130 kts 348°
2026-05-04 09:46 51.48251 -0.12636 1759 ft 127 kts
2026-05-04 09:47 51.49092 -0.12338 1749 ft 126 kts 25°
2026-05-04 09:47 51.49795 -0.11521 1665 ft 123 kts 49°
2026-05-04 09:49 51.50724 -0.02282 1271 ft 124 kts 88°
2026-05-04 09:49 51.50702 -0.00884 1153 ft 126 kts 89°
2026-05-04 09:49 51.50663 0.00538 848 ft 132 kts 90°